TimeEDT,TemperatureF,Dew PointF,Humidity,Sea Level PressureIn,VisibilityMPH,Wind Direction,Wind SpeedMPH,Gust SpeedMPH,PrecipitationIn,Events,Conditions,WindDirDegrees,DateUTC
12:51 AM,39.9,36.9,89,29.91,10.0,Calm,Calm,-,N/A,,Clear,0,2011-11-04 04:51:00
1:51 AM,38.8,36.9,93,29.91,10.0,Calm,Calm,-,N/A,,Clear,0,2011-11-04 05:51:00
3:51 AM,45.9,37.9,74,29.92,10.0,NW,5.8,-,N/A,,Mostly Cloudy,320,2011-11-04 07:51:00
4:51 AM,46.9,36.9,68,29.94,10.0,North,10.4,-,N/A,,Overcast,350,2011-11-04 08:51:00
5:51 AM,45.0,36.0,71,29.97,10.0,North,4.6,-,N/A,,Mostly Cloudy,360,2011-11-04 09:51:00
6:51 AM,41.9,34.9,76,29.99,10.0,North,6.9,-,N/A,,Clear,350,2011-11-04 10:51:00
7:51 AM,41.9,29.1,61,30.02,10.0,NNW,11.5,-,N/A,,Clear,340,2011-11-04 11:51:00
8:51 AM,41.9,28.0,58,30.05,10.0,NNW,10.4,-,N/A,,Clear,330,2011-11-04 12:51:00
9:51 AM,43.0,28.0,56,30.05,10.0,NNW,10.4,-,N/A,,Clear,330,2011-11-04 13:51:00
10:51 AM,43.9,27.1,52,30.04,10.0,NNW,24.2,-,N/A,,Clear,330,2011-11-04 14:51:00
11:51 AM,45.9,25.2,44,30.05,10.0,NNW,21.9,-,N/A,,Clear,330,2011-11-04 15:51:00
12:51 PM,46.9,24.1,41,30.05,10.0,NNW,13.8,-,N/A,,Clear,340,2011-11-04 16:51:00
1:51 PM,48.9,23.0,36,30.04,10.0,WNW,13.8,26.5,N/A,,Scattered Clouds,300,2011-11-04 17:51:00
2:51 PM,48.9,22.1,35,30.04,10.0,NW,18.4,26.5,N/A,,Scattered Clouds,320,2011-11-04 18:51:00
3:51 PM,48.9,21.0,33,30.06,10.0,NNW,13.8,24.2,N/A,,Scattered Clouds,330,2011-11-04 19:51:00
4:51 PM,45.0,21.0,39,30.11,10.0,NNW,17.3,32.2,N/A,,Scattered Clouds,330,2011-11-04 20:51:00
5:51 PM,43.0,22.1,44,30.15,10.0,NW,12.7,21.9,N/A,,Scattered Clouds,320,2011-11-04 21:51:00
6:51 PM,41.0,23.0,49,30.19,10.0,NW,10.4,17.3,N/A,,Scattered Clouds,310,2011-11-04 22:51:00
7:51 PM,39.9,24.1,53,30.21,10.0,NW,13.8,19.6,N/A,,Partly Cloudy,320,2011-11-04 23:51:00
8:51 PM,38.8,25.2,58,30.23,10.0,NNW,9.2,-,N/A,,Clear,340,2011-11-05 00:51:00
9:51 PM,36.9,25.2,63,30.26,10.0,NNW,9.2,-,N/A,,Clear,330,2011-11-05 01:51:00
10:51 PM,36.0,23.0,59,30.28,10.0,NNW,8.1,-,N/A,,Clear,330,2011-11-05 02:51:00
11:51 PM,34.0,23.0,64,30.28,10.0,NNW,8.1,-,N/A,,Clear,330,2011-11-05 03:51:00